Powrót do katalogu

STARLINK-35541

AktywnyŁącznośćVLEO
NORAD 66235·PAYLOAD·🇺🇸 United States

Wystrzelony Oct 29, 2025 z Cape Canaveral Space Force Station

Loading…

Następne Przeloty (najbliższe 24 godziny)

TLE

ŚwieżeSource: CelesTrak SupGP

Epoka: Sep 15, 2026, 02:34 UTC

1 66235C 25245B   26258.10743056  .00048294  00000+0  15528-2 0  2586
2 66235  53.1560 122.9978 0001285  82.7620 233.4296 15.31681868    10

Śledź STARLINK-35541 w czasie rzeczywistym z AllMySat

Download on the App Store